{"data":{"norad_id":69621,"epoch":"2026-09-20T03:18:12.972960Z","epoch_age_seconds":60126,"freshness":"FRESH","line1":"1 69621U 26140AF  26263.13765015  .00008635  00000+0  11645-2 0  9994","line2":"2 69621  51.8987 308.3014 0000419  66.9991 293.1015 14.79775721 15723","mean_motion":14.79775721,"eccentricity":4.19e-5,"inclination_deg":51.8987,"raan_deg":308.3014,"arg_perigee_deg":66.9991,"mean_anomaly_deg":293.1015,"bstar":0.0011645,"rev_number":1572,"period_min":97.312043951287,"perigee_km":629.73852169058,"apogee_km":630.32580626652,"semimajor_km":7008.1691639785,"source":"CELESTRAK","updated_at":"2026-09-20T09:00:25.030300Z"}}